Regional Weather Roundup
Issued by NWS Northern Indiana

Home | Current Version | Previous Version | Graphics & Text | Print | Product List | Glossary On
Versions: 1 2 3 4 5 6 7 8 9 10 11 12 13 14 15 16 17 18 19 20 21 22 23 24 25 26 27 28 29 30 31 32 33 34 35 36 37 38 39 40 41 42 43 44 45 46 47 48 49 50
411
ASUS43 KIWX 252000
RWRIWX

KIWX WEATHER ROUNDUP
NATIONAL WEATHER SERVICE NORTHERN INDIANA
400 PM EDT SUN SEP 25 2016

NOTE: "FAIR" INDICATES FEW OR NO CLOUDS BELOW 12,000 FEET WITH NO
SIGNIFICANT WEATHER AND/OR OBSTRUCTIONS TO VISIBILITY.

* THESE STATIONS ARE NOT UNDER NWS QUALITY CONTROL. THEY ALSO MAY NOT
  REPORT WEATHER SUCH AS PRECIPITATION OR FOG.

INZ001>027-252100-
NORTHERN INDIANA

CITY           SKY/WX    TMP DP  RH WIND       PRES   REMARKS
GARY*          PTSUNNY   86  66  51 SE9       29.97F
SOUTH BEND     MOSUNNY   82  66  58 S13       30.02F
GOSHEN         SUNNY     81  62  52 SE10      30.04F
ANGOLA*        MOSUNNY   77  61  57 SE10      30.07F
FORT WAYNE     PTSUNNY   82  64  54 SE6       30.06F
PERU/GRISSOM   MOSUNNY   85  65  51 S6        30.01F

$$
INZ028>050-252100-
CENTRAL INDIANA

CITY           SKY/WX    TMP DP  RH WIND       PRES   REMARKS
LAFAYETTE      MOSUNNY   87  65  47 VRB6      29.99F
MUNCIE*        SUNNY     86  62  44 VRB3      30.05F
INDIANAPOLIS   PTSUNNY   85  66  53 SW8       30.03F

$$
MIZ043>046-050>051-056>058-064>065-071>073-077>080-252100-
SOUTHWEST LOWER MICHIGAN

CITY           SKY/WX    TMP DP  RH WIND       PRES   REMARKS
BATTLE CREEK   SUNNY     76  54  46 SE9       30.07F
BENTON HARBOR  CLOUDY    81  63  54 SE7       30.01F
COLDWATER*     SUNNY     75  56  50 SE6       30.08F
HILLSDALE*     MOSUNNY   75  46  35 E8        30.10F
HOLLAND        MOSUNNY   77  63  61 SE12      30.03F
GRAND RAPIDS   PTSUNNY   75  57  53 SE12      30.05F
KALAMAZOO      SUNNY     78  56  46 SE8       30.05F
STURGIS*       SUNNY     79  60  51 SE12      30.04F
THREE RIVERS*  FAIR      79  62  55 SE9       30.04F

$$
OHZ001>008-015>018-024>025-252100-
NORTHWEST OHIO

CITY           SKY/WX    TMP DP  RH WIND       PRES   REMARKS
DEFIANCE       CLOUDY    78  55  44 CALM      30.09F
FINDLAY        SUNNY     82  47  29 NE7       30.08F
TOLEDO EXPRESS SUNNY     75  46  35 NE5       30.11S
TOLEDO METCALF SUNNY     74  53  48 NE10      30.12F
LIMA           SUNNY     81  61  50 E3        30.09F

$$
AND FOR LAKE MICHIGAN COASTAL AND OPEN LAKE BUOY OBSERVATIONS

STATION/POSITION TEMP    WIND        PRES    VSBY  WAVE
                 AIR SEA DIR/SP/G                  HT/PER
                 (F)     (DEG/KT/KT) (MB)    (MI)  (FT/S)
CALUMET HARBOR    83     150/  8/ 11 1014.4F
MICHIGAN CITY     82     110/  7/ 10   N/A
BURNS HARBOR      84     170/  7/ 11 1015.2F
SOUTH LAKE BUOY   71 72  140/ 16/ 17 1015.6          4/ 5
4 MI NW BRIDGMAN  75 68  150/  6/  8 1015.7F         1
MICHIGAN CITY     76 70  150/  6/  8   N/A           1

$$
&&




USA.gov is the U.S. government's official web portal to all federal, state and local government web resources and services.